This is the latest recevied weather packets stored in our database for station/object IN3XSV. If no packets are shown the sender has not sent any weather packets the latest 1 day(s).
| Time | Temp. | Humidity | Pressure | Rain* | Wind** | Luminosity | Snow |
|---|---|---|---|---|---|---|---|
| 1778078018 | 12.78° C | 79% | 1003 hPa | 0 mm | - | - | - |
| 1778072319 | 12.22° C | 78% | 1003.8 hPa | 73.41 mm | - | - | - |
| 1778072019 | 12.78° C | 77% | 1003.8 hPa | 73.41 mm | - | - | - |
| 1778071719 | 12.78° C | 77% | 1004 hPa | 35.05 mm | - | - | - |
| 1778071419 | 13.89° C | 77% | 1003.7 hPa | 0 mm | - | - | - |
| 1778071119 | 13.89° C | 77% | 1003.6 hPa | 0 mm | - | - | - |
| 1778070819 | 13.89° C | 77% | 1003.1 hPa | 0 mm | - | - | - |
| 1778070519 | 13.89° C | 76% | 1002.8 hPa | 0 mm | - | - | - |
| 1778070219 | 13.89° C | 76% | 1002.6 hPa | 0 mm | - | - | - |
| 1778069919 | 14.44° C | 75% | 1002.7 hPa | 0 mm | - | - | - |
| 1778069619 | 15° C | 74% | 1002.8 hPa | 0 mm | - | - | - |
| 1778069319 | 15.56° C | 74% | 1002.8 hPa | 0 mm | - | - | - |
| 1778069019 | 15° C | 73% | 1002.8 hPa | 0 mm | - | - | - |
| 1778068719 | 15° C | 73% | 1002.6 hPa | 0 mm | - | - | - |
| 1778068419 | 15° C | 72% | 1002.7 hPa | 0 mm | - | - | - |
| 1778068119 | 15.56° C | 71% | 1002.6 hPa | 0 mm | - | - | - |
| 1778067819 | 15.56° C | 71% | 1002.5 hPa | 0 mm | - | - | - |
| 1778067519 | 15.56° C | 71% | 1002.6 hPa | 0 mm | - | - | - |
| 1778067219 | 15.56° C | 70% | 1002.7 hPa | 0 mm | - | - | - |
| 1778066919 | 15.56° C | 70% | 1002.8 hPa | 0 mm | - | - | - |
| 1778066619 | 16.11° C | 69% | 1002.8 hPa | 0 mm | - | - | - |
| 1778066319 | 16.11° C | 70% | 1002.9 hPa | 0 mm | - | - | - |
| 1778066019 | 16.11° C | 72% | 1002.7 hPa | 0 mm | - | - | - |
| 1778065719 | 15.56° C | 71% | 1003 hPa | 0 mm | - | - | - |
| 1778065419 | 15.56° C | 72% | 1003 hPa | 0 mm | - | - | - |
* Rain latest hour (hover to see other rain measurements)
** Current wind speed in m/s (hover to see current wind gust speed)